TimeCDT,TemperatureF,Dew PointF,Humidity,Sea Level PressureIn,VisibilityMPH,Wind Direction,Wind SpeedMPH,Gust SpeedMPH,PrecipitationIn,Events,Conditions,WindDirDegrees,DateUTC
12:54 AM,81.0,70.0,69,29.93,10.0,South,8.1,-,N/A,,Clear,190,2013-07-10 05:54:00
1:54 AM,81.0,70.0,69,29.91,10.0,SSW,9.2,-,N/A,,Partly Cloudy,210,2013-07-10 06:54:00
2:54 AM,81.0,70.0,69,29.90,10.0,SW,8.1,-,N/A,,Scattered Clouds,230,2013-07-10 07:54:00
3:17 AM,82.0,70.0,67,29.93,10.0,SW,6.9,-,N/A,Thunderstorm,Mostly Cloudy,230,2013-07-10 08:17:00
3:24 AM,82.0,70.0,67,29.93,10.0,SW,6.9,-,N/A,Thunderstorm,Thunderstorm,230,2013-07-10 08:24:00
3:39 AM,80.1,71.1,74,29.92,10.0,WSW,11.5,24.2,0.00,Rain-Thunderstorm,Light Rain,250,2013-07-10 08:39:00
3:49 AM,80.6,71.6,74,29.92,10.0,West,10.4,-,0.00,Rain-Thunderstorm,Light Thunderstorms and Rain,280,2013-07-10 08:49:00
3:54 AM,80.1,71.1,74,29.89,10.0,West,10.4,-,0.00,Rain-Thunderstorm,Light Thunderstorms and Rain,270,2013-07-10 08:54:00
4:09 AM,79.0,72.0,79,29.93,10.0,SW,11.5,-,0.00,Rain-Thunderstorm,Light Rain,220,2013-07-10 09:09:00
4:16 AM,78.1,72.0,81,29.93,10.0,SSW,10.4,-,0.00,Thunderstorm,Thunderstorm,210,2013-07-10 09:16:00
4:37 AM,77.0,71.1,82,29.92,10.0,SSW,11.5,-,0.00,Thunderstorm,Scattered Clouds,200,2013-07-10 09:37:00
4:45 AM,77.0,71.1,82,29.92,10.0,SSW,12.7,-,0.00,,Partly Cloudy,200,2013-07-10 09:45:00
4:54 AM,77.0,71.1,82,29.89,10.0,SSW,13.8,-,0.00,,Scattered Clouds,210,2013-07-10 09:54:00
5:54 AM,77.0,72.0,84,29.91,10.0,SSW,12.7,-,N/A,,Overcast,210,2013-07-10 10:54:00
6:54 AM,79.0,72.0,79,29.92,10.0,SW,15.0,-,N/A,,Mostly Cloudy,220,2013-07-10 11:54:00
7:36 AM,77.0,72.0,84,29.96,8.0,SW,8.1,-,0.00,Rain-Thunderstorm,Light Thunderstorms and Rain,230,2013-07-10 12:36:00
7:39 AM,77.0,72.0,84,29.98,1.0,WSW,13.8,21.9,0.00,Rain-Thunderstorm,Light Thunderstorms and Rain,250,2013-07-10 12:39:00
7:42 AM,75.0,71.1,87,29.95,0.2,SW,13.8,28.8,0.01,Fog-Rain-Thunderstorm,Heavy Thunderstorms and Rain,230,2013-07-10 12:42:00
7:54 AM,73.9,70.0,87,29.94,2.0,North,4.6,-,0.60,Rain-Thunderstorm,Heavy Thunderstorms and Rain,360,2013-07-10 12:54:00
8:01 AM,75.0,70.0,84,29.98,8.0,NNW,5.8,-,0.04,Rain-Thunderstorm,Light Thunderstorms and Rain,340,2013-07-10 13:01:00
8:54 AM,73.9,72.0,93,29.97,7.0,Variable,5.8,-,0.07,Rain-Thunderstorm,Light Thunderstorms and Rain,0,2013-07-10 13:54:00
8:58 AM,73.9,72.0,93,30.00,10.0,SSE,8.1,-,0.00,,Overcast,150,2013-07-10 13:58:00
9:54 AM,73.0,70.0,90,29.99,10.0,SSW,10.4,-,0.00,,Overcast,200,2013-07-10 14:54:00
10:54 AM,78.1,73.0,84,29.99,10.0,SW,9.2,-,N/A,,Overcast,230,2013-07-10 15:54:00
11:41 AM,81.0,73.9,79,30.01,10.0,NW,6.9,-,N/A,,Scattered Clouds,310,2013-07-10 16:41:00
11:54 AM,81.0,73.9,79,29.99,10.0,NW,8.1,-,N/A,,Clear,310,2013-07-10 16:54:00
12:54 PM,84.9,75.9,74,29.98,10.0,North,12.7,-,N/A,,Partly Cloudy,350,2013-07-10 17:54:00
1:12 PM,84.0,75.0,74,30.01,10.0,North,11.5,-,N/A,,Mostly Cloudy,10,2013-07-10 18:12:00
1:51 PM,86.0,75.2,70,30.01,10.0,North,11.5,-,N/A,,Scattered Clouds,360,2013-07-10 18:51:00
1:54 PM,86.0,75.0,70,29.98,10.0,NNW,11.5,-,N/A,,Scattered Clouds,340,2013-07-10 18:54:00
2:54 PM,88.0,71.1,57,29.97,10.0,North,12.7,-,N/A,,Partly Cloudy,10,2013-07-10 19:54:00
3:54 PM,88.0,68.0,51,29.96,10.0,North,9.2,-,N/A,,Clear,360,2013-07-10 20:54:00
4:54 PM,89.1,66.9,48,29.94,10.0,North,11.5,-,N/A,,Clear,350,2013-07-10 21:54:00
5:54 PM,89.1,66.0,46,29.92,10.0,North,8.1,-,N/A,,Clear,350,2013-07-10 22:54:00
6:54 PM,87.1,64.9,48,29.92,10.0,NNW,11.5,-,N/A,,Clear,340,2013-07-10 23:54:00
7:54 PM,84.0,64.9,53,29.94,10.0,North,3.5,-,N/A,,Clear,360,2013-07-11 00:54:00
8:54 PM,80.1,64.9,60,29.96,10.0,North,5.8,-,N/A,,Clear,360,2013-07-11 01:54:00
9:54 PM,73.9,64.9,73,29.98,10.0,North,6.9,-,N/A,,Clear,10,2013-07-11 02:54:00
10:54 PM,73.9,64.0,71,30.00,10.0,NE,9.2,-,N/A,,Clear,40,2013-07-11 03:54:00
11:54 PM,71.1,64.0,78,30.01,10.0,NNE,9.2,-,N/A,,Clear,30,2013-07-11 04:54:00